This is the latest recevied weather packets stored in our database for station/object N7MLR. If no packets are shown the sender has not sent any weather packets the latest 10 day(s).
| Time | Temp. | Humidity | Pressure | Rain* | Wind** | Luminosity | Snow |
|---|---|---|---|---|---|---|---|
| 1777487149 | 25.56° C | 90% | 1011.9 hPa | 0 mm | - | 50 W/m² | - |
| 1777486844 | 26.11° C | 89% | 1011.8 hPa | 0 mm | - | 65 W/m² | - |
| 1777486542 | 26.11° C | 88% | 1011.7 hPa | 0 mm | - | 82 W/m² | - |
| 1777486239 | 26.11° C | 88% | 1011.5 hPa | 0 mm | - | 62 W/m² | - |
| 1777485937 | 26.11° C | 88% | 1011.9 hPa | 0 mm | - | 116 W/m² | - |
| 1777485633 | 26.11° C | 88% | 1012 hPa | 0 mm | - | 135 W/m² | - |
| 1777485327 | 26.11° C | 90% | 1012 hPa | 0 mm | - | 126 W/m² | - |
| 1777485024 | 25.56° C | 90% | 1011.9 hPa | 0 mm | - | 146 W/m² | - |
| 1777484722 | 25.56° C | 91% | 1012 hPa | 0 mm | - | 154 W/m² | - |
| 1777484418 | 25.56° C | 91% | 1012.2 hPa | 0 mm | - | 154 W/m² | - |
| 1777484115 | 25.56° C | 92% | 1012.2 hPa | 0 mm | - | 196 W/m² | - |
| 1777483811 | 25° C | 94% | 1012.4 hPa | 0 mm | - | 189 W/m² | - |
| 1777483508 | 25° C | 94% | 1012.3 hPa | 0 mm | - | 230 W/m² | - |
| 1777483202 | 24.44° C | 95% | 1012.2 hPa | 0 mm | - | 88 W/m² | - |
| 1777482899 | 24.44° C | 95% | 1012 hPa | 0 mm | - | 92 W/m² | - |
| 1777482595 | 25° C | 95% | 1012.1 hPa | 0 mm | - | 94 W/m² | - |
| 1777482292 | 24.44° C | 95% | 1012.3 hPa | 0 mm | - | 86 W/m² | - |
| 1777481989 | 24.44° C | 95% | 1012.6 hPa | 0 mm | - | 79 W/m² | - |
| 1777481687 | 24.44° C | 96% | 1012.6 hPa | 0 mm | - | 88 W/m² | - |
| 1777481384 | 24.44° C | 96% | 1012.5 hPa | 0 mm | - | 89 W/m² | - |
| 1777481080 | 24.44° C | 96% | 1012.6 hPa | 0 mm | - | 86 W/m² | - |
| 1777480777 | 24.44° C | 96% | 1012.6 hPa | 0 mm | - | 85 W/m² | - |
| 1777480474 | 24.44° C | 97% | 1012.5 hPa | 0 mm | - | 47 W/m² | - |
| 1777480169 | 24.44° C | 97% | 1012.6 hPa | 0 mm | - | 74 W/m² | - |
| 1777479866 | 24.44° C | 97% | 1012.6 hPa | 0 mm | - | 81 W/m² | - |
* Rain latest hour (hover to see other rain measurements)
** Current wind speed in m/s (hover to see current wind gust speed)